DW5467 Weather Reports


Display with metric or nautical units.
time (UTC)temp
F
wind
direction
speed
MPH
gust
MPH
rain 1hr
in
rain 24hr
in
rain mn
in
humidity
%
barometer
mb
20260506121530 73 209 0.0 0.0 0.00 0.00 0.00 87 1010.4
20260506120530 73 208 0.0 1.0 0.00 0.00 0.00 87 1010.2
20260506120031 73 208 0.0 1.0 0.00 0.00 0.00 87 1010.2
20260506115531 73 208 0.0 1.0 0.00 0.00 0.00 87 1010.2
20260506115031 73 208 0.0 1.0 0.00 0.00 0.00 87 1010.1
20260506114530 73 208 0.0 1.0 0.00 0.00 0.00 87 1010.1
20260506114030 73 207 0.0 1.0 0.00 0.00 0.00 87 1010.1
20260506113530 73 207 0.0 1.0 0.00 0.00 0.00 87 1010.0
20260506113030 73 94 0.0 0.0 0.00 0.00 0.00 87 1010.0
20260506112531 73 94 0.0 2.0 0.00 0.00 0.00 87 1009.9
20260506111530 73 323 0.0 3.0 0.00 0.00 0.00 87 1009.7
20260506111030 73 334 0.0 2.0 0.00 0.00 0.00 87 1009.6
20260506110530 73 161 0.0 2.0 0.00 0.00 0.00 87 1009.5
20260506110030 73 161 0.0 2.0 0.00 0.00 0.00 87 1009.6
20260506105530 73 135 1.0 2.0 0.00 0.00 0.00 87 1009.4
20260506104530 73 185 1.0 2.0 0.00 0.00 0.00 87 1009.4
20260506104030 73 209 1.0 3.0 0.00 0.00 0.00 87 1009.4
20260506103531 73 104 0.0 3.0 0.00 0.00 0.00 87 1009.3
20260506103030 73 211 0.0 1.0 0.00 0.00 0.00 87 1009.2
20260506102530 73 198 0.0 2.0 0.00 0.00 0.00 87 1009.2
20260506101530 73 290 1.0 3.0 0.00 0.00 0.00 87 1009.2
20260506101031 73 289 1.0 1.0 0.00 0.00 0.00 87 1009.2
20260506100531 73 256 0.0 2.0 0.00 0.00 0.00 87 1009.2
20260506095530 73 132 0.0 2.0 0.00 0.00 0.00 87 1009.1
20260506095030 73 108 0.0 1.0 0.00 0.00 0.00 87 1009.0
20260506094530 73 108 1.0 2.0 0.00 0.00 0.00 87 1009.1
20260506094031 73 115 1.0 2.0 0.00 0.00 0.00 87 1009.1
20260506093530 73 110 0.0 1.0 0.00 0.00 0.00 87 1009.1
20260506093030 73 233 0.0 1.0 0.00 0.00 0.00 87 1008.9
20260506092530 73 233 1.0 2.0 0.00 0.00 0.00 87 1008.9
20260506092031 73 264 0.0 2.0 0.00 0.00 0.00 87 1008.8
20260506091530 73 265 0.0 2.0 0.00 0.00 0.00 87 1008.6
20260506090532 73 103 0.0 2.0 0.00 0.00 0.00 87 1008.9
20260506090031 73 150 0.0 1.0 0.00 0.00 0.00 87 1008.9
20260506085530 73 157 0.0 2.0 0.00 0.00 0.00 87 1008.8
20260506085030 73 159 0.0 2.0 0.00 0.00 0.00 87 1008.8
20260506084530 73 253 1.0 2.0 0.00 0.00 0.00 87 1008.8
20260506083531 73 292 0.0 2.0 0.00 0.00 0.00 87 1008.5
20260506083031 73 268 0.0 2.0 0.00 0.00 0.00 87 1008.6
20260506082530 73 240 1.0 3.0 0.00 0.00 0.00 87 1008.7
20260506082031 73 61 0.0 2.0 0.00 0.00 0.00 87 1008.6
20260506080530 73 229 1.0 2.0 0.00 0.00 0.00 86 1008.3
20260506073029 73 323 1.0 3.0 0.00 0.00 0.00 86 1008.4
20260506072529 73 302 0.0 3.0 0.00 0.00 0.00 86 1008.0
20260506072031 73 221 1.0 3.0 0.00 0.00 0.00 86 1008.5
20260506071530 73 242 0.0 1.0 0.00 0.00 0.00 86 1008.5
20260506071029 73 221 1.0 3.0 0.00 0.00 0.00 86 1008.4
20260506070530 73 219 0.0 0.0 0.00 0.00 0.00 86 1008.5
20260506062030 73 145 0.0 0.0 0.00 0.00 0.00 86 1009.4
20260506061530 73 145 0.0 0.0 0.00 0.00 0.00 86 1009.3
20260506061031 73 137 0.0 2.0 0.00 0.00 0.00 86 1009.1
20260506051030 74 255 1.0 3.0 0.00 0.00 0.00 85 1009.0
20260506050531 74 288 0.0 3.0 0.00 0.00 0.00 85 1008.8
20260506044530 74 328 1.0 3.0 0.00 0.00 0.00 85 1008.3
20260506044030 74 167 0.0 3.0 0.00 0.00 0.00 85 1008.2
20260506043530 74 266 1.0 2.0 0.00 0.00 0.00 85 1008.1
20260506042530 74 303 0.0 5.0 0.00 0.00 0.00 85 1008.0
20260506042031 74 319 1.0 3.0 0.00 0.00 0.00 84 1008.2
20260506041530 74 333 1.0 3.0 0.00 0.00 0.00 84 1008.1
20260506040530 74 275 0.0 3.0 0.00 0.00 0.00 84 1008.0
20260506040031 74 214 1.0 3.0 0.00 0.00 0.00 84 1008.1
20260506035530 75 188 1.0 3.0 0.00 0.00 0.00 84 1008.1
20260506034530 75 304 2.0 6.0 0.00 0.00 0.00 84 1008.0
20260506034030 75 227 0.0 2.0 0.00 0.00 0.00 84 1008.0
20260506033530 75 261 0.0 1.0 0.00 0.00 0.00 83 1008.1
20260506033030 75 261 0.0 1.0 0.00 0.00 0.00 83 1008.1
20260506032030 75 270 1.0 5.0 0.00 0.00 0.00 83 1007.7
20260506031530 75 281 0.0 2.0 0.00 0.00 0.00 83 1007.6
20260506031029 75 311 0.0 2.0 0.00 0.00 0.00 82 1007.8
20260506030530 75 315 0.0 2.0 0.00 0.00 0.00 82 1008.0
20260506030030 75 315 1.0 1.0 0.00 0.00 0.00 82 1008.2
20260506025530 75 315 1.0 2.0 0.00 0.00 0.00 82 1008.3
20260506025030 75 86 1.0 2.0 0.00 0.00 0.00 82 1008.2
20260506024530 75 305 0.0 2.0 0.00 0.00 0.00 82 1008.1
20260506024030 76 304 0.0 2.0 0.00 0.00 0.00 82 1008.0
20260506023530 76 102 0.0 2.0 0.00 0.00 0.00 82 1007.9
20260506023029 76 95 0.0 2.0 0.00 0.00 0.00 82 1007.8
20260506022530 76 92 1.0 2.0 0.00 0.00 0.00 81 1007.7
20260506022030 76 79 0.0 1.0 0.00 0.00 0.00 81 1007.5
20260506021530 76 78 1.0 3.0 0.00 0.00 0.00 80 1007.5
20260506021029 76 301 0.0 3.0 0.00 0.00 0.00 80 1007.5
20260506020530 76 305 0.0 1.0 0.00 0.00 0.00 80 1007.2
20260506020030 76 305 0.0 1.0 0.00 0.00 0.00 80 1007.2
20260506015530 76 305 0.0 1.0 0.00 0.00 0.00 79 1007.2
20260506014530 77 265 0.0 1.0 0.00 0.00 0.00 79 1007.1
20260506014029 77 265 0.0 1.0 0.00 0.00 0.00 79 1007.1
20260506013529 77 265 1.0 2.0 0.00 0.00 0.00 79 1007.1
20260506013029 77 264 1.0 2.0 0.00 0.00 0.00 78 1007.2
20260506012530 77 265 0.0 1.0 0.00 0.00 0.00 78 1007.1
20260506012030 77 265 0.0 1.0 0.00 0.00 0.00 78 1007.0
20260506011030 78 326 0.0 2.0 0.00 0.00 0.00 77 1006.6
20260506010530 78 327 0.0 1.0 0.00 0.00 0.00 77 1006.5
20260506010030 78 327 0.0 2.0 0.00 0.00 0.00 77 1006.4
20260506005529 78 303 0.0 2.0 0.00 0.00 0.00 77 1006.4
20260506005030 78 302 1.0 2.0 0.00 0.00 0.00 77 1006.3
20260506004530 79 304 0.0 1.0 0.00 0.00 0.00 76 1006.3
20260506003530 79 271 0.0 1.0 0.00 0.00 0.00 76 1006.2
20260506003030 79 271 0.0 1.0 0.00 0.00 0.00 76 1006.4
20260506001530 80 271 0.0 1.0 0.00 0.00 0.00 76 1006.3
20260506001030 80 271 1.0 2.0 0.00 0.00 0.00 76 1006.4
20260506000531 80 271 1.0 3.0 0.00 0.00 0.00 76 1006.4
20260506000030 80 284 1.0 3.0 0.00 0.00 0.00 76 1006.3
20260505235531 80 322 1.0 3.0 0.00 0.00 0.00 76 1006.3
20260505235030 80 245 1.0 2.0 0.00 0.00 0.00 75 1006.3
20260505234530 80 221 1.0 3.0 0.00 0.00 0.00 75 1006.3
20260505233531 80 22 1.0 3.0 0.00 0.00 0.00 75 1006.3
20260505233031 80 298 1.0 6.0 0.00 0.00 0.00 75 1006.2
20260505232530 80 242 0.0 1.0 0.00 0.00 0.00 75 1006.2
20260505232029 80 246 0.0 2.0 0.00 0.00 0.00 75 1006.2
20260505231030 80 241 1.0 3.0 0.00 0.00 0.00 74 1006.1
20260505225530 81 67 1.0 3.0 0.00 0.00 0.00 74 1006.0
20260505225030 81 276 2.0 6.0 0.00 0.00 0.00 73 1006.0
20260505224530 81 325 1.0 3.0 0.00 0.00 0.00 73 1006.0
20260505224030 81 250 1.0 3.0 0.00 0.00 0.00 74 1005.9
20260505223530 81 260 0.0 3.0 0.00 0.00 0.00 74 1006.0
20260505223031 81 309 1.0 3.0 0.00 0.00 0.00 74 1006.0
20260505222529 81 328 1.0 3.0 0.00 0.00 0.00 74 1006.1
20260505222030 82 252 1.0 3.0 0.00 0.00 0.00 73 1006.1
20260505221530 82 197 1.0 3.0 0.00 0.00 0.00 73 1006.2
20260505220530 82 213 1.0 2.0 0.00 0.00 0.00 73 1006.2
20260505220029 82 222 1.0 3.0 0.00 0.00 0.00 74 1006.2
20260505215529 82 255 1.0 3.0 0.00 0.00 0.00 74 1006.3
20260505215029 82 306 1.0 2.0 0.00 0.00 0.00 75 1006.4
20260505214530 82 305 1.0 2.0 0.00 0.00 0.00 75 1006.4
20260505214030 81 290 1.0 2.0 0.00 0.00 0.00 74 1006.4
20260505213529 81 294 1.0 3.0 0.00 0.00 0.00 75 1006.4
20260505213030 81 257 1.0 2.0 0.00 0.00 0.00 75 1006.5
20260505212530 81 267 1.0 3.0 0.00 0.00 0.00 75 1006.5
20260505212030 81 250 1.0 3.0 0.00 0.00 0.00 74 1006.5
20260505211030 81 210 1.0 5.0 0.00 0.00 0.00 74 1006.7
20260505210530 81 250 1.0 3.0 0.00 0.00 0.00 74 1006.8
20260505210029 81 323 1.0 5.0 0.00 0.00 0.00 74 1006.8
20260505205530 81 215 1.0 3.0 0.00 0.00 0.00 73 1006.9
20260505205030 81 312 2.0 3.0 0.00 0.00 0.00 73 1007.0
20260505204530 81 232 1.0 3.0 0.00 0.00 0.00 73 1006.9
20260505203529 82 254 1.0 3.0 0.00 0.00 0.00 70 1006.9
20260505203030 82 256 1.0 3.0 0.00 0.00 0.00 73 1006.9
20260505202530 81 279 1.0 3.0 0.00 0.00 0.00 75 1006.9
20260505202029 81 157 2.0 5.0 0.00 0.00 0.00 74 1006.9
20260505201530 81 263 1.0 3.0 0.00 0.00 0.00 73 1007.0
20260505201030 82 109 1.0 3.0 0.00 0.00 0.00 73 1006.9
20260505200530 82 12 1.0 3.0 0.00 0.00 0.00 73 1006.9
20260505200029 82 239 1.0 3.0 0.00 0.00 0.00 72 1006.9
20260505194530 80 140 1.0 3.0 0.00 0.00 0.00 75 1007.2
20260505193529 80 275 1.0 3.0 0.00 0.00 0.00 74 1007.3
20260505193030 80 233 1.0 3.0 0.00 0.00 0.00 74 1007.4
20260505192530 80 355 1.0 3.0 0.00 0.00 0.00 75 1007.4
20260505192030 80 335 2.0 3.0 0.00 0.00 0.00 76 1007.5
20260505191530 80 327 0.0 1.0 0.00 0.00 0.00 77 1007.5
20260505190030 79 306 1.0 3.0 0.00 0.00 0.00 76 1007.6
20260505185530 79 231 2.0 3.0 0.00 0.00 0.00 75 1007.7
20260505185030 79 66 1.0 2.0 0.00 0.00 0.00 75 1007.7
20260505184529 79 261 1.0 3.0 0.00 0.00 0.00 76 1007.7
20260505184030 79 158 1.0 3.0 0.00 0.00 0.00 76 1007.8
20260505183529 79 133 1.0 3.0 0.00 0.00 0.00 75 1007.8
20260505182030 78 315 1.0 3.0 0.00 0.00 0.00 77 1007.9
20260505181530 78 222 2.0 7.0 0.00 0.00 0.00 76 1007.9
20260505181030 78 247 2.0 3.0 0.00 0.00 0.00 75 1007.7
20260505180530 78 209 2.0 3.0 0.00 0.00 0.00 75 1007.7
20260505180030 78 246 1.0 6.0 0.00 0.00 0.00 76 1007.7
20260505175530 78 138 1.0 5.0 0.00 0.00 0.00 77 1007.8
20260505175029 78 229 2.0 5.0 0.00 0.00 0.00 76 1007.7
20260505174529 77 205 1.0 3.0 0.00 0.00 0.00 77 1007.9
20260505174030 77 201 1.0 3.0 0.00 0.00 0.00 78 1008.0
20260505173529 76 198 2.0 7.0 0.00 0.00 0.00 78 1008.0
20260505173029 76 298 2.0 9.0 0.00 0.00 0.00 78 1008.1
20260505172530 76 333 1.0 3.0 0.00 0.00 0.00 79 1008.1
20260505172030 76 272 1.0 9.0 0.00 0.00 0.00 79 1008.2
20260505170531 76 341 1.0 3.0 0.00 0.00 0.00 80 1008.3
20260505165530 74 350 1.0 3.0 0.00 0.00 0.00 82 1008.4
20260505165030 73 98 1.0 3.0 0.00 0.00 0.00 84 1008.4
20260505164529 73 259 1.0 3.0 0.00 0.00 0.00 84 1008.4
20260505164030 73 250 1.0 3.0 0.00 0.00 0.00 84 1008.4
20260505163529 73 207 1.0 5.0 0.00 0.00 0.00 84 1008.5
20260505163030 72 299 0.0 2.0 0.00 0.00 0.00 84 1008.5
20260505162530 72 299 1.0 3.0 0.00 0.00 0.00 84 1008.7
20260505162030 72 319 1.0 3.0 0.00 0.00 0.00 84 1008.8
20260505161530 72 129 0.0 3.0 0.00 0.00 0.00 84 1008.9
20260505161030 72 119 0.0 0.0 0.00 0.00 0.00 84 1008.9
20260505160529 72 125 0.0 1.0 0.00 0.00 0.00 85 1008.8
20260505152530 70 202 1.0 5.0 0.00 0.00 0.00 86 1008.6
20260505152030 70 313 0.0 3.0 0.00 0.00 0.00 86 1008.7
20260505151530 70 309 1.0 3.0 0.00 0.00 0.00 86 1008.7
20260505151031 70 269 1.0 3.0 0.00 0.00 0.00 86 1008.9
20260505150530 70 252 0.0 3.0 0.00 0.00 0.00 86 1008.9
20260505140530 69 223 1.0 3.0 0.00 0.00 0.00 86 1008.7
20260505125030 67 302 1.0 3.0 0.00 0.00 0.00 86 1008.6
20260505124530 67 253 1.0 2.0 0.00 0.00 0.00 86 1008.6
20260505124030 67 251 1.0 3.0 0.00 0.00 0.00 86 1008.4
20260505123529 67 279 1.0 3.0 0.00 0.00 0.00 86 1008.4
20260505123029 67 352 1.0 2.0 0.00 0.00 0.00 85 1008.3
20260505122529 67 70 1.0 3.0 0.00 0.00 0.00 85 1008.4